Location: Newark
(41.4981°N, 44.1297°E)
Time: 16:24:43
(UTC+00:00)

ISS - Visible Passes

Search period start: 07 December 2019 00:00
Search period end: 17 December 2019 00:00
Orbit: 411 x 421 km, 51.6° (Epoch: 08 December)

Date Brightness Start Highest point End Pass type
(mag) Time Alt. Az. Time Alt. Az. Time Alt. Az.
07 Dec -3.4 15:07:54 10° NW 15:11:07 44° NNE 15:11:07 44° NNE visible
08 Dec -2.8 14:19:34 10° NW 14:22:36 30° NNE 14:25:11 13° E visible
08 Dec -1.6 15:56:14 10° WNW 15:58:08 27° W 15:58:08 27° W visible
09 Dec -3.6 15:07:40 10° WNW 15:11:01 73° SW 15:12:26 31° SE visible
10 Dec -3.8 14:19:12 10° NW 14:22:32 66° NNE 14:25:53 10° ESE visible
10 Dec -0.9 15:56:57 10° W 15:58:55 15° SW 16:00:06 13° SSW visible
11 Dec -1.5 15:07:47 10° WNW 15:10:36 25° SW 15:13:26 10° SSE visible
12 Dec -2.5 14:19:01 10° WNW 14:22:14 44° SW 14:25:26 10° SSE visible
14 Dec -0.5 14:19:32 10° W 14:21:40 16° SW 14:23:48 10° S visible
